OpenBCM V1.08-5-g2f4a (Linux)

Packet Radio Mailbox

IZ3LSV

[San Dona' di P. JN]

 Login: GUEST





  
CX2SA  > KEP      05.05.20 23:32l 94 Lines 3932 Bytes #999 (0) @ ARL
BID : ARLK036
Read: GUEST
Subj: ARLK036 Keplerian data
Path: IZ3LSV<I0OJJ<I0OJJ<N6RME<CX2SA
Sent: 200505/2227Z @:CX2SA.SAL.URY.SOAM #:30694 [Salto] FBB7.00e $:ARLK036

>From cx2sa%cx2sa.sal.ury.soam@i0ojj.ampr.org Wed May  6 00:30:18 2020
Received: from i0ojj.ampr.org by i0ojj.ampr.org (JNOS2.0n.beta) with SMTP
	id AA109667 ; Wed, 06 May 2020 00:30:18 +0200
Message-Id: <ARLK036@i0ojj.bbs>
>From: cx2sa@cx2sa.sal.ury.soam
X-JNOS-User-Port: Telnet   (i0ojj @ 44.134.32.240)  -> Sending message

From: CX2SA@CX2SA.SAL.URY.SOAM
To  : KEP@ARL


ZCZC SK36
QST de W1AW
Keplerian Bulletin 36  ARLK036
>From ARRL Headquarters
Newington, CT  May 5, 2020
To all radio amateurs

SB KEP ARL ARLK036
ARLK036 Keplerian data

Special thanks to AMSAT-NA (AMSAT.ORG) for the following Keplerian
data.

Decode 2-line elsets with the following key:
1 AAAAAU 00  0  0 BBBBB.BBBBBBBB  .CCCCCCCC  00000-0  00000-0 0  DDDZ
2 AAAAA EEE.EEEE FFF.FFFF GGGGGGG HHH.HHHH III.IIII JJ.JJJJJJJJKKKKKZ
KEY: A-CATALOGNUM B-EPOCHTIME C-DECAY D-ELSETNUM E-INCLINATION F-RAAN
G-ECCENTRICITY H-ARGPERIGEE I-MNANOM J-MNMOTION K-ORBITNUM Z-CHECKSUM

0 AO-07
1 7530U 74089B   20126.21589743 -.00000044 +00000-0 +56386-5 0  9995
2 7530 101.7965 096.2045 0012617 087.0995 285.5334 12.53643313080578
0 FO-29
1 24278U 96046B   20126.20728778 -.00000020 +00000-0 +13470-4 0  9992
2 24278 098.5777 241.7160 0351251 126.7660 236.6270 13.53097686171030
0 ISS
1 25544U 98067A   20126.67269083  .00000922  00000-0  24593-4 0  9992
2 25544  51.6445 198.8891 0001100 241.2399 276.2595 15.49349906225424
0 SO-50
1 27607U 02058C   20126.19783390 -.00000013 +00000-0 +18868-4 0  9998
2 27607 064.5537 146.6195 0053441 188.8867 171.1296 14.75630864934343
0 CO-55
1 27844U 03031E   20126.02544869  .00000060  00000-0  46879-4 0  9995
2 27844  98.6830 134.4145 0009937 174.1625 185.9670 14.22235213873961
0 RS-22
1 27939U 03042A   20126.54820524  .00000127  00000-0  31407-4 0  9999
2 27939  98.0828 261.9542 0014119 126.0808 234.1704 14.66856441887725
0 RS-30
1 32953U 08025A   20126.49918948  .00000037  00000-0  19437-3 0  9997
2 32953  82.5006 304.6246 0019635 145.7403 214.4949 12.43095383542291
0 KKS-1
1 33499U 09002H   20126.18611367 +.00000097 +00000-0 +22254-4 0  9998
2 33499 098.3224 339.7065 0007787 262.4227 097.6097 14.75526465606202
0 AO-71
1 37854U 11061E   20126.14971040 +.00001142 +00000-0 +65030-4 0  9999
2 37854 101.7003 195.0683 0158747 190.5028 169.2856 15.07177130464957
0 AO-73
1 39444U 13066AE  20125.95250128 +.00000245 +00000-0 +36187-4 0  9992
2 39444 097.5596 128.6026 0059301 053.9640 306.7049 14.82109134346923
0 UKUBE 1
1 40074U 14037F   20126.49111325  .00000265  00000-0  38850-4 0  9998
2 40074  98.4556 312.2710 0003363 261.6107  98.4747 14.84245289315384
0 XW-2A
1 40903U 15049E   20126.58679410  .00002042  00000-0  48214-4 0  9997
2 40903  97.2923 175.5010 0014775  62.5214  94.1923 15.42953850259863
0 XW-2F
1 40910U 15049M   20126.38503103  .00000964  00000-0  50791-4 0  9992
2 40910  97.4680 130.5804 0015635 145.8371 321.9109 15.17871788255808
0 XW-2B
1 40911U 15049N   20126.52990124  .00000828  00000-0  46228-4 0  9991
2 40911  97.4764 128.9075 0014700 154.6336 322.4718 15.16186864255663
0 IO-86
1 40931U 15052B   20125.02811343  .00000898  00000-0  35794-4 0  9999
2 40931   5.9957 292.2308 0014530   7.3956 280.7373 14.76636066248675
0 CAS-4B
1 42759U 17034B   20126.47698167  .00000148  00000-0  22462-4 0  9994
2 42759  43.0187 263.1763 0009720 121.3832 289.1032 15.09805612159476
0 CAS-4A
1 42761U 17034D   20126.56455868  .00000270  00000-0  29858-4 0  9998
2 42761  43.0187 262.0222 0010129 123.2164 334.7778 15.09885129159487
0 AO-91
1 43017U 17073E   20126.02011197  .00000231  00000-0  23604-4 0  9990
2 43017  97.7246  39.9314 0256746 191.5616 167.9631 14.78896839132743
0 AO-92
1 43137U 18004AC  20126.15173822  .00000830  00000-0  37161-4 0  9994
2 43137  97.4478 197.6019 0008592 197.8148 162.2790 15.24045800128449

Keplerian bulletins are transmitted twice weekly from W1AW.  The
next scheduled transmission of these data will be Friday, May 8,
2020, at 2230z on Baudot and BPSK31.
NNNN



Read previous mail | Read next mail


 19.12.2025 19:35:28lGo back Go up